Theta_e
292 292 292 292 291 291 291 290 290 289 289 288 288 287 287 286 285 285 284 283 283 284
291 291 291 290 291 291 290 290 289 289 287 287 287 287 286 285 284 284 284 284 283 283
292 292 291 291 291 290 289 289 288 287 287 286 286 286 285 284 284 284 283 283 282 283
291 291 290 290 290 290 289 288 288 287 287 286 286 285 285 284 283 282 282 282 282 283
289 289 289 289 289 288 288 288 288 287 287 286 286 285 284 283 283 281 281 282 282 281
288 288 288 289 288 288 288 287 287 287 286 285 285 284 283 282 282 282 282 282 281 280
288 288 288 288 288 287 287 286 286 286 286 285 285 284 283 282 281 282 282 282 281 280
287 287 287 287 287 287 286 286 286 285 284 284 284 283 282 281 281 282 281 281 281 280
286 286 287 287 286 286 286 285 285 284 284 283 284 286 287 283 281 282 281 277 277 278
286 286 286 286 285 285 285 284 284 283 283 282 281 287 287 288 281 279 276 275 275 274
285 286 286 285 285 285 285 284 283 282 282 280 279 287 288 287 277 275 273 270 270 270
284 285 285 285 285 285 284 283 281 283 280 280 276 285 287 286 276 275 274 269 268 270
283 285 285 286 285 285 285 284 283 280 281 280 278 284 286 286 277 275 272 266 267 275
283 285 286 285 285 283 284 283 282 281 278 278 278 277 286 287 277 278 272 270 267 267
Wind_Speed
14 10 7 9 8 8 8 7 7 7 6 6 6 5 5 3 3 4 4 5 4 3
10 10 10 9 8 7 6 6 8 8 7 7 6 6 6 4 4 4 4 4 4 4
13 11 10 9 10 10 7 7 8 8 8 7 6 7 6 4 4 4 3 3 5 5
11 11 10 11 11 11 9 10 10 10 9 8 8 7 6 6 5 5 5 5 5 6
10 11 12 11 11 10 12 10 11 10 9 8 8 7 7 7 5 6 6 6 5 5
9 11 11 11 11 11 10 10 9 9 10 9 9 8 7 6 6 6 6 5 5 5
12 13 12 11 11 11 11 11 10 10 9 9 8 8 7 6 6 6 6 5 5 5
8 8 8 9 10 10 11 10 10 9 7 8 7 6 7 7 7 6 5 5 4 4
7 8 10 10 11 11 11 10 10 10 10 9 7 14 16 11 6 6 5 5 4 4
9 11 11 10 10 12 13 11 12 11 10 10 9 17 17 15 5 5 6 5 3 3
7 9 9 11 13 12 11 14 12 11 11 9 8 17 17 13 5 5 6 5 4 4
7 8 10 13 15 13 12 11 11 10 12 12 8 18 17 13 6 5 6 5 4 5
6 9 11 13 12 10 11 11 10 9 11 12 9 17 18 14 5 5 4 3 3 9
10 11 12 9 8 9 10 9 10 10 8 9 9 10 18 18 6 6 4 4 3 3
Wind_Direction
181 179 174 168 166 172 185 183 165 174 170 181 183 177 175 172 189 198 205 216 226 237
173 166 175 165 163 172 168 168 170 168 172 182 181 181 174 182 194 195 211 223 232 235
178 174 170 163 174 179 171 162 162 168 175 180 182 183 177 181 192 193 214 222 230 242
172 171 167 179 180 179 167 168 172 174 178 180 183 184 182 190 189 202 210 235 231 244
166 172 182 185 179 170 176 177 174 173 177 181 183 182 187 191 187 199 219 235 246 255
173 180 189 188 180 176 170 173 172 172 182 183 184 184 192 189 194 204 219 228 237 248
190 191 189 183 178 175 174 170 177 186 183 179 180 186 184 185 198 212 222 215 237 243
193 181 170 176 178 174 176 180 179 174 176 177 179 187 185 187 200 207 220 223 238 244
178 178 189 184 182 179 180 174 171 181 182 181 190 195 201 193 193 203 213 223 227 251
193 192 192 178 175 190 187 174 184 184 178 189 188 198 203 204 178 197 214 225 211 247
202 208 187 178 190 193 183 184 184 184 185 182 198 200 203 202 180 200 218 217 211 229
220 208 192 195 197 191 182 185 184 180 180 188 194 200 201 197 177 204 228 215 210 228
230 219 212 212 201 189 193 192 178 181 187 188 188 198 199 196 167 203 220 252 242 249
266 227 219 210 190 181 181 169 180 184 181 185 188 191 199 201 177 199 188 214 247 239